JBU5455 KEYW-KLAL

Flight info

Callsign JBU5455
Flight time N/A
Altitude 30000
Route CARNU KARTR RSW LAL
Aircraft E190/M-SDE3GILORVW/S

Departure

Time N/A
Airport Key West International Airport (KEYW)

Arrival

Time 2026-04-26 04:07
Airport Lakeland Linder International Airport (KLAL)
Time Latitude Longitude Altitude Speed Heading
2026-04-26 03:51 27.00724 -81.89582 17770 ft 350 kts 346°
2026-04-26 03:51 27.03088 -81.90179 17382 ft 349 kts 346°
2026-04-26 03:51 27.05457 -81.90778 16990 ft 345 kts 345°
2026-04-26 03:52 27.07781 -81.91366 16611 ft 342 kts 345°
2026-04-26 03:52 27.10123 -81.91959 16232 ft 341 kts 345°
2026-04-26 03:52 27.12413 -81.92539 15855 ft 338 kts 345°
2026-04-26 03:52 27.14740 -81.93127 15469 ft 337 kts 345°
2026-04-26 03:53 27.17016 -81.93704 15099 ft 335 kts 345°
2026-04-26 03:53 27.19282 -81.94278 14729 ft 333 kts 345°
2026-04-26 03:53 27.21530 -81.94849 14359 ft 330 kts 345°
2026-04-26 03:53 27.23772 -81.95418 13996 ft 330 kts 345°
2026-04-26 03:54 27.26013 -81.95986 13631 ft 326 kts 344°
2026-04-26 03:54 27.28219 -81.96546 13270 ft 324 kts 345°
2026-04-26 03:54 27.30429 -81.97108 12910 ft 325 kts 345°
2026-04-26 03:54 27.32637 -81.97669 12555 ft 324 kts 345°
2026-04-26 03:55 27.34803 -81.98219 12195 ft 322 kts 345°
2026-04-26 03:55 27.37016 -81.98782 11846 ft 323 kts 345°
2026-04-26 03:55 27.39197 -81.99337 11481 ft 319 kts 345°
2026-04-26 03:55 27.41335 -81.99881 11126 ft 311 kts 344°
2026-04-26 03:56 27.43408 -82.00408 10791 ft 303 kts 345°
2026-04-26 03:56 27.45438 -82.00925 10459 ft 296 kts 345°
2026-04-26 03:56 27.47433 -82.01434 10139 ft 288 kts 345°
2026-04-26 03:56 27.49364 -82.01926 9826 ft 281 kts 344°
2026-04-26 03:57 27.51275 -82.02413 9515 ft 280 kts 344°
2026-04-26 03:57 27.53177 -82.02898 9207 ft 280 kts 344°
2026-04-26 03:57 27.55068 -82.03382 8897 ft 282 kts 345°
2026-04-26 03:57 27.56978 -82.03869 8584 ft 282 kts 345°
2026-04-26 03:58 27.58900 -82.04360 8269 ft 282 kts 345°
2026-04-26 03:58 27.60828 -82.04852 7951 ft 281 kts 345°
2026-04-26 03:58 27.62730 -82.05338 7638 ft 278 kts 345°
2026-04-26 03:58 27.64590 -82.05814 7325 ft 270 kts 345°
2026-04-26 03:59 27.66390 -82.06273 7029 ft 263 kts 345°
2026-04-26 03:59 27.68162 -82.06726 6739 ft 256 kts 345°
2026-04-26 03:59 27.69883 -82.07167 6458 ft 249 kts 345°
2026-04-26 03:59 27.71539 -82.07591 6230 ft 240 kts 345°
2026-04-26 04:00 27.73126 -82.07996 6007 ft 228 kts 345°
2026-04-26 04:00 27.74660 -82.08389 5704 ft 221 kts 345°
2026-04-26 04:00 27.76133 -82.08767 5439 ft 212 kts 345°
2026-04-26 04:00 27.77543 -82.09129 5193 ft 203 kts 345°
2026-04-26 04:01 27.78902 -82.09476 4968 ft 195 kts 345°
2026-04-26 04:01 27.80054 -82.10182 4761 ft 188 kts 315°
2026-04-26 04:01 27.81003 -82.11223 4590 ft 191 kts 314°
2026-04-26 04:01 27.81926 -82.12251 4388 ft 184 kts 313°
2026-04-26 04:02 27.82802 -82.13232 4235 ft 171 kts 313°
2026-04-26 04:02 27.83631 -82.14166 3997 ft 167 kts 313°
2026-04-26 04:02 27.84455 -82.15093 3803 ft 165 kts 315°
2026-04-26 04:02 27.85482 -82.15559 3580 ft 161 kts
2026-04-26 04:03 27.86502 -82.15095 3355 ft 162 kts 37°
2026-04-26 04:03 27.87343 -82.14256 3152 ft 160 kts 43°
2026-04-26 04:03 27.88124 -82.13391 2923 ft 153 kts 43°
2026-04-26 04:03 27.88849 -82.12587 2692 ft 142 kts 43°
2026-04-26 04:04 27.89547 -82.11811 2503 ft 140 kts 43°
2026-04-26 04:04 27.90244 -82.11037 2333 ft 140 kts 43°
2026-04-26 04:04 27.90939 -82.10265 2151 ft 141 kts 42°
2026-04-26 04:04 27.91640 -82.09486 1961 ft 140 kts 42°
2026-04-26 04:05 27.92337 -82.08711 1773 ft 140 kts 42°
2026-04-26 04:05 27.93038 -82.07933 1584 ft 141 kts 43°
2026-04-26 04:05 27.93736 -82.07156 1397 ft 141 kts 43°
2026-04-26 04:05 27.94433 -82.06381 1210 ft 141 kts 43°
2026-04-26 04:06 27.95133 -82.05606 1013 ft 141 kts 44°
2026-04-26 04:06 27.95818 -82.04842 817 ft 137 kts 42°
2026-04-26 04:06 27.96504 -82.04083 683 ft 137 kts 43°
2026-04-26 04:06 27.97202 -82.03328 497 ft 142 kts 44°
2026-04-26 04:07 27.97924 -82.02522 290 ft 146 kts 45°
2026-04-26 04:07 27.98626 -82.01728 147 ft 136 kts 45°
2026-04-26 04:07 27.99214 -82.01068 139 ft 90 kts 46°
2026-04-26 04:07 27.99468 -82.00784 142 ft 29 kts 41°
2026-04-26 04:08 27.99563 -82.00752 142 ft 10 kts 319°
2026-04-26 04:08 27.99554 -82.00813 142 ft 9 kts 206°
2026-04-26 04:08 27.99479 -82.00861 142 ft 14 kts 221°
2026-04-26 04:08 27.99405 -82.00941 142 ft 15 kts 230°
2026-04-26 04:09 27.99367 -82.01054 142 ft 16 kts 245°
2026-04-26 04:09 27.99287 -82.01158 139 ft 18 kts 224°
2026-04-26 04:09 27.99261 -82.01253 139 ft 5 kts 332°
2026-04-26 04:09 27.99291 -82.01279 139 ft 6 kts 320°
2026-04-26 04:10 27.99326 -82.01314 139 ft 6 kts 317°
2026-04-26 04:10 27.99366 -82.01347 139 ft 7 kts 318°
2026-04-26 04:10 27.99388 -82.01372 139 ft 0 kts 314°